Regional Weather Roundup
Issued by NWS New Orleans/Baton Rouge, LA

Home | Current Version | Previous Version | Text Only | Print | Product List | Glossary On
Versions: 1 2 3 4 5 6 7 8 9 10 11 12 13 14 15 16 17 18 19 20 21 22 23 24 25 26 27 28 29 30 31 32 33 34 35 36 37 38 39 40 41 42 43 44 45 46 47 48 49 50
000
ASUS44 KLIX 020211
RWRLIX
NEW ORLEANS REGIONAL WEATHER ROUNDUP
NATIONAL WEATHER SERVICE NEW ORLEANS LA
900 PM CDT WED JUL 01 2015

NOTE: "FAIR" INDICATES FEW OR NO CLOUDS BELOW 12,000 FEET WITH NO
      SIGNIFICANT WEATHER AND/OR OBSTRUCTIONS TO VISIBILITY.
      SKY/WX - SKY CONDITION AND SIGNIFICANT WEATHER.
      TMP - AIR TEMPERATURE.     DP    - DEWPOINT TEMPERATURE.
      RH  - RELATIVE HUMIDITY.   PRES  - PRESSURE.
      HI  - HEAT INDEX.          WCI   - WIND CHILL INDEX.

*  THESE STATIONS ARE NOT NWS OR FAA STATIONS AND ARE NOT UNDER
   NWS QUALITY CONTROL.

LAZ038-040-048-061>063-065>067-069-020300-
SOUTHEAST LOUISIANA

CITY           SKY/WX    TMP DP  RH WIND       PRES   REMARKS
N.O. AUDUBON     N/A     79  78  99 MISG        N/A
N.O. INTL ARPT LGT RAIN  77  74  90 SE6       30.07F
N.O. LAKEFRONT CLOUDY    80  74  81 S12       30.07F
N.O. DOWNTOWN*   N/A     79  73  83 SE6       30.08F
RESERVE*         N/A     76  73  88 CALM      30.07F
SLIDELL        CLOUDY    75  73  93 S3        30.07F
BATON ROUGE    MOCLDY    74  72  93 E3        30.06S
BOOTHVILLE     MOCLDY    83  78  85 NW3       30.12R
BELLE CHASSE   CLOUDY    76  73  91 SE6       30.08F
BOGALUSA*        N/A     74  69  85 CALM      30.08F
GALLIANO*      TSTM      81  72  74 CALM      30.10R
NEW ROADS*       N/A    N/A N/A N/A CALM      30.06S
GONZALES*        N/A     75  75 100 CALM      30.06S
HAMMOND*       CLOUDY    73  70  88 CALM      30.09R
HOUMA*         LGT RAIN  79  78  96 E5        30.08S
PORT FOURCHON* CLEAR     84  75  74 CALM      30.10R

$$

MSZ070-080>082-020300-
SOUTHERN MISSISSIPPI

CITY           SKY/WX    TMP DP  RH WIND       PRES   REMARKS
MCCOMB         PTCLDY    73  71  93 CALM      30.07F
GULFPORT       CLOUDY    75  72  90 CALM      30.07F
BILOXI         CLOUDY    76  72  87 SW1       30.07F
PASCAGOULA     CLOUDY    74  73  97 CALM      30.08F
STENNIS ARPT*  PTCLDY    72  68  88 MISG      30.09S

$$

COASTAL OBSERVATIONS
LAKE AND NEARSHORE STATIONS

STATION/POSITION TIME  TEMP    WIND        PRES    WAVE
                       AIR SEA DIR/SP/G            HT/PER
                 (UTC) (F)     (DEG/KT/KT) (MB)    (FT/S)
PASCAGOULA       0100   78     310/  5/  8 1018.6
WAVELAND YACHT   0100   75 84  310/  3/  3 1018.8
GRAND ISLE       0100   84 86  240/  3/  5 1019.0
SOUTHWEST PASS   0100   84 83  210/  4/  5 1019.3
NEW CANAL        0100   77 84  150/  3/  5 1017.8
SHELL BEACH      0100   78 84  250/  7/  8 1018.5

OFFSHORE STATIONS

STATION/POSITION TIME  TEMP    WIND        PRES    WAVE
                       AIR SEA DIR/SP/G            HT/PER
                 (UTC) (F)     (DEG/KT/KT) (MB)    (FT/S)
64 S DAUPHIN ISL 0150   84 86  270/ 10/ 12 1019.4    2/ 3

$$



USA.gov is the U.S. government's official web portal to all federal, state and local government web resources and services.